Louisville, KY

1:02 AM EST on January 18, 2017 (GMT -0500)
Louisville International-Standiford

Weather History for KSDF - January, 2014

Change the Weather History Date:

Thursday, January 30, 2014

  Actual Average Record
Temperature  
Mean Temperature 26 °F 36 °F  
Max Temperature 39 °F 44 °F 71 °F (1916)
Min Temperature 12 °F 27 °F -9 °F (1966)
Degree Days  
Heating Degree Days 39 29  
Month to date heating degree days 1093 898  
Since 1 July heating degree days 2734 2474  
Cooling Degree Days 0 0  
Month to date cooling degree days 0 0  
Year to date cooling degree days 0 0  
Moisture  
Dew Point 1 °F    
Average Humidity 40    
Maximum Humidity 61    
Minimum Humidity 19    
Precipitation  
Precipitation 0.00 in 0.12 in 1.37 in (1938)
Month to date precipitation 2.41 3.13  
Year to date precipitation 2.41 3.13  
Snow  
Snow 0.00 in 0.10 in 6.80 in (1980)
Month to date snowfall 8.3 3.5  
Since 1 July snowfall 14.1 6.3  
Snow Depth T in    
Sea Level Pressure  
Sea Level Pressure 30.16 in    
Wind  
Wind Speed 10 mph (South)    
Max Wind Speed 21 mph    
Max Gust Speed 24 mph    
Visibility 10 miles    
Events      
T = Trace of Precipitation, MM = Missing Value Source: NWS Daily Summary

Daily Weather History Graph

Daily Weather History Graph

Search for Another Location

Airport or City:

Trip Planner

Search our weather history database for the weather conditions in past years. The results will help you decide how hot, cold, wet, or windy it might be!

Date:

Astronomy

Jan. 30, 2014 Rise Set
Actual Time 7:49 AM EST 6:03 PM EST
Civil Twilight 7:21 AM EST 6:31 PM EST
Nautical Twilight 6:49 AM EST 7:03 PM EST
Astronomical Twilight 6:18 AM EST 7:34 PM EST
Moon 7:15 AM EST (1/30) 6:13 PM EST (1/30)
Length of Visible Light 11h 10m
Length of Day
10h 14m
Waning Crescent, 0% of the Moon is Illuminated
Jan 30
Waning Crescent
Jan 30
New
Feb 6
First Quarter
Feb 14
Full
Feb 22
Last Quarter

Hourly Weather History & Observations

Time (EST) Temp. Windchill Dew Point Humidity Pressure Visibility Wind Dir Wind Speed Gust Speed Precip Events Conditions
12:56 AM 17.1 °F 7.6 °F 1.9 °F 52% 30.32 in 10.0 mi SE 6.9 mph - N/A   Clear
1:56 AM 17.1 °F 10.0 °F 1.9 °F 52% 30.31 in 10.0 mi SSE 4.6 mph - N/A   Clear
2:56 AM 14.0 °F 6.5 °F 1.9 °F 59% 30.31 in 10.0 mi SE 4.6 mph - N/A   Clear
3:56 AM 16.0 °F 4.4 °F 1.9 °F 54% 30.30 in 10.0 mi SSE 9.2 mph - N/A   Clear
4:56 AM 16.0 °F 6.3 °F 1.0 °F 52% 30.28 in 10.0 mi South 6.9 mph - N/A   Clear
5:56 AM 15.1 °F 3.3 °F 1.9 °F 56% 30.27 in 10.0 mi SSE 9.2 mph - N/A   Clear
6:56 AM 12.9 °F 1.6 °F 1.0 °F 59% 30.29 in 10.0 mi SSE 8.1 mph - N/A   Clear
7:56 AM 12.9 °F 2.6 °F 1.0 °F 59% 30.28 in 10.0 mi SSE 6.9 mph - N/A   Partly Cloudy
8:56 AM 17.1 °F 7.6 °F 1.9 °F 52% 30.27 in 10.0 mi SE 6.9 mph - N/A   Partly Cloudy
9:56 AM 21.9 °F 12.5 °F 1.0 °F 40% 30.27 in 10.0 mi South 8.1 mph - N/A   Scattered Clouds
10:56 AM 28.0 °F 18.1 °F 1.9 °F 33% 30.25 in 10.0 mi South 11.5 mph 23.0 mph N/A   Mostly Cloudy
11:56 AM 30.0 °F 18.3 °F 1.9 °F 30% 30.20 in 10.0 mi South 17.3 mph 21.9 mph N/A   Mostly Cloudy
12:56 PM 33.1 °F 23.9 °F 3.0 °F 28% 30.13 in 10.0 mi South 12.7 mph - N/A   Overcast
1:56 PM 35.1 °F 24.8 °F 1.0 °F 24% 30.08 in 10.0 mi South 17.3 mph 20.7 mph N/A   Mostly Cloudy
2:56 PM 37.0 °F 28.1 °F 1.0 °F 22% 30.05 in 10.0 mi SSE 15.0 mph 19.6 mph N/A   Mostly Cloudy
3:56 PM 37.9 °F 29.2 °F -0.0 °F 20% 30.01 in 10.0 mi South 15.0 mph - N/A   Mostly Cloudy
4:56 PM 37.9 °F 28.9 °F -2.0 °F 18% 29.98 in 10.0 mi South 16.1 mph - N/A   Mostly Cloudy
5:56 PM 37.9 °F 29.2 °F -0.0 °F 20% 29.98 in 10.0 mi South 15.0 mph - N/A   Mostly Cloudy
6:56 PM 37.0 °F 30.4 °F 1.0 °F 22% 29.99 in 10.0 mi South 9.2 mph - N/A   Mostly Cloudy
7:56 PM 36.0 °F 31.1 °F 1.0 °F 23% 30.01 in 10.0 mi SSW 5.8 mph - N/A   Scattered Clouds
8:56 PM 37.0 °F 31.6 °F 1.0 °F 22% 30.02 in 10.0 mi South 6.9 mph - N/A   Overcast
9:56 PM 37.0 °F 31.0 °F -0.0 °F 21% 30.04 in 10.0 mi SSW 8.1 mph - N/A   Overcast
10:56 PM 37.0 °F 31.0 °F 1.0 °F 22% 30.05 in 10.0 mi SSW 8.1 mph - N/A   Overcast
11:56 PM 37.0 °F 31.0 °F 1.9 °F 23% 30.06 in 10.0 mi SSW 8.1 mph - N/A   Overcast